JAF50K EBBR-LEIB

Flight info

Callsign JAF50K
Flight time 2h 5m
Altitude 37000
Route CIV N872 LESDO DCT KOVIN DCT DUCRA UM728 RESMI UN857 DISAK DCT DIRMO DCT ETAMO DCT ADEKA DCT MOKDI DCT MEN DCT BADAM DCT KANIG DCT KENAS DCT POS
Aircraft B38M/M-SDE1FGHILORVWXY/HB1

Departure

Time 2026-05-05 15:18
Airport Brussels Airport (EBBR)

Arrival

Time 2026-05-05 17:23
Airport Ibiza Airport (LEIB)
Time Latitude Longitude Altitude Speed Heading
2026-05-05 14:36 50.90364 4.48424 121 ft 0 kts 155°
2026-05-05 15:05 50.90368 4.48421 121 ft 2 kts 155°
2026-05-05 15:05 50.90385 4.48409 118 ft 3 kts 155°
2026-05-05 15:05 50.90403 4.48395 121 ft 3 kts 155°
2026-05-05 15:06 50.90418 4.48385 118 ft 3 kts 151°
2026-05-05 15:06 50.90431 4.48367 118 ft 3 kts 112°
2026-05-05 15:06 50.90432 4.48340 120 ft 3 kts 71°
2026-05-05 15:06 50.90427 4.48320 119 ft 1 kts 65°
2026-05-05 15:10 50.90429 4.48327 119 ft 2 kts 65°
2026-05-05 15:10 50.90446 4.48385 121 ft 11 kts 65°
2026-05-05 15:11 50.90493 4.48549 122 ft 22 kts 65°
2026-05-05 15:11 50.90567 4.48803 118 ft 25 kts 66°
2026-05-05 15:11 50.90638 4.49052 121 ft 10 kts 66°
2026-05-05 15:11 50.90669 4.49160 121 ft 12 kts 65°
2026-05-05 15:12 50.90706 4.49290 121 ft 15 kts 65°
2026-05-05 15:12 50.90759 4.49470 123 ft 22 kts 65°
2026-05-05 15:12 50.90775 4.49544 124 ft 5 kts 70°
2026-05-05 15:12 50.90808 4.49644 126 ft 16 kts 68°
2026-05-05 15:13 50.90806 4.49684 126 ft 4 kts 117°
2026-05-05 15:13 50.90777 4.49714 124 ft 8 kts 168°
2026-05-05 15:13 50.90686 4.49687 126 ft 20 kts 196°
2026-05-05 15:13 50.90509 4.49609 124 ft 31 kts 195°
2026-05-05 15:14 50.90311 4.49533 128 ft 27 kts 194°
2026-05-05 15:14 50.90141 4.49464 132 ft 23 kts 194°
2026-05-05 15:14 50.89999 4.49405 134 ft 22 kts 195°
2026-05-05 15:14 50.89859 4.49350 141 ft 20 kts 194°
2026-05-05 15:15 50.89714 4.49293 151 ft 25 kts 194°
2026-05-05 15:15 50.89567 4.49201 159 ft 19 kts 219°
2026-05-05 15:15 50.89419 4.49127 166 ft 27 kts 193°
2026-05-05 15:15 50.89325 4.49091 169 ft 0 kts 193°
2026-05-05 15:16 50.89321 4.49089 169 ft 1 kts 193°
2026-05-05 15:16 50.89314 4.49086 170 ft 3 kts 193°
2026-05-05 15:16 50.89241 4.49058 175 ft 18 kts 193°
2026-05-05 15:16 50.89151 4.49036 179 ft 1 kts 142°
2026-05-05 15:17 50.89145 4.49058 179 ft 5 kts 99°
2026-05-05 15:17 50.89160 4.49144 178 ft 14 kts 71°
2026-05-05 15:17 50.89239 4.49494 178 ft 70 kts 69°
2026-05-05 15:17 50.89493 4.50581 178 ft 139 kts 70°
2026-05-05 15:18 50.89861 4.52201 592 ft 163 kts 68°
2026-05-05 15:18 50.90248 4.53889 1534 ft 171 kts 68°
2026-05-05 15:18 50.90729 4.55652 2218 ft 182 kts 62°
2026-05-05 15:18 50.91311 4.57614 2676 ft 211 kts 64°
2026-05-05 15:19 50.91538 4.60020 3210 ft 240 kts 101°
2026-05-05 15:19 50.90702 4.62322 4084 ft 258 kts 135°
2026-05-05 15:19 50.89050 4.63582 4918 ft 273 kts 171°
2026-05-05 15:19 50.87154 4.63402 5324 ft 281 kts 194°
2026-05-05 15:20 50.85467 4.62003 6120 ft 274 kts 221°
2026-05-05 15:20 50.84316 4.59599 7161 ft 278 kts 243°
2026-05-05 15:20 50.83426 4.56847 8017 ft 285 kts 241°
2026-05-05 15:20 50.82466 4.54091 8999 ft 288 kts 240°
2026-05-05 15:21 50.81488 4.51294 9948 ft 291 kts 240°
2026-05-05 15:21 50.80485 4.48430 10574 ft 306 kts 240°
2026-05-05 15:21 50.79410 4.45392 11091 ft 323 kts 240°
2026-05-05 15:21 50.78307 4.42267 11675 ft 336 kts 240°
2026-05-05 15:22 50.77156 4.39005 12365 ft 345 kts 240°
2026-05-05 15:22 50.75983 4.35674 13305 ft 345 kts 240°
2026-05-05 15:22 50.74807 4.32331 14105 ft 350 kts 240°
2026-05-05 15:22 50.73617 4.28952 14876 ft 354 kts 240°
2026-05-05 15:23 50.72430 4.25587 15708 ft 356 kts 239°
2026-05-05 15:23 50.71219 4.22159 16509 ft 359 kts 239°
2026-05-05 15:23 50.69997 4.18698 17336 ft 361 kts 240°
2026-05-05 15:23 50.68771 4.15234 18080 ft 365 kts 239°
2026-05-05 15:24 50.67528 4.11727 18736 ft 367 kts 240°
2026-05-05 15:24 50.66278 4.08202 19385 ft 369 kts 239°
2026-05-05 15:24 50.65016 4.04648 20002 ft 372 kts 239°
2026-05-05 15:24 50.63766 4.01134 20622 ft 375 kts 239°
2026-05-05 15:25 50.62486 3.97541 21262 ft 377 kts 239°
2026-05-05 15:25 50.61199 3.93931 21863 ft 380 kts 239°
2026-05-05 15:25 50.59898 3.90291 22420 ft 384 kts 239°
2026-05-05 15:25 50.58568 3.86660 23026 ft 385 kts 234°
2026-05-05 15:26 50.56744 3.83596 23595 ft 384 kts 215°
2026-05-05 15:26 50.54425 3.81513 24049 ft 387 kts 204°
2026-05-05 15:26 50.52001 3.79733 24437 ft 391 kts 204°
2026-05-05 15:26 50.49488 3.77945 24966 ft 392 kts 203°
2026-05-05 15:27 50.47011 3.76217 25408 ft 395 kts 202°
2026-05-05 15:27 50.44473 3.74472 25857 ft 398 kts 202°
2026-05-05 15:27 50.41923 3.72731 26297 ft 400 kts 202°
2026-05-05 15:27 50.41589 3.72503 26365 ft 400 kts 202°
2026-05-05 15:28 50.40641 3.71859 26531 ft 401 kts 202°
2026-05-05 15:28 50.38072 3.70113 26971 ft 403 kts 202°
2026-05-05 15:28 50.35493 3.68365 27390 ft 406 kts 202°
2026-05-05 15:28 50.32875 3.66593 27719 ft 411 kts 202°
2026-05-05 15:29 50.30247 3.64816 28176 ft 412 kts 201°
2026-05-05 15:29 50.27602 3.63030 28569 ft 415 kts 201°
2026-05-05 15:29 50.24936 3.61232 28985 ft 418 kts 201°
2026-05-05 15:29 50.22258 3.59429 29416 ft 420 kts 201°
2026-05-05 15:30 50.19594 3.57637 29828 ft 423 kts 201°
2026-05-05 15:30 50.16884 3.55815 30168 ft 425 kts 201°
2026-05-05 15:30 50.14179 3.54000 30522 ft 426 kts 201°
2026-05-05 15:30 50.11436 3.52161 30872 ft 428 kts 201°
2026-05-05 15:31 50.08684 3.50319 31198 ft 430 kts 201°
2026-05-05 15:31 50.05948 3.48491 31526 ft 432 kts 201°
2026-05-05 15:31 50.03173 3.46638 31857 ft 434 kts 201°
2026-05-05 15:31 50.00397 3.44787 32182 ft 435 kts 201°
2026-05-05 15:32 49.97627 3.42941 32515 ft 437 kts 201°
2026-05-05 15:32 49.94823 3.41077 32937 ft 437 kts 201°
2026-05-05 15:32 49.92027 3.39218 33417 ft 436 kts 201°
2026-05-05 15:32 49.89242 3.37372 33866 ft 435 kts 201°
2026-05-05 15:33 49.86452 3.35521 34183 ft 435 kts 201°
2026-05-05 15:33 49.83673 3.33681 34498 ft 434 kts 201°
2026-05-05 15:33 49.80895 3.31844 34802 ft 434 kts 201°
2026-05-05 15:33 49.78141 3.30025 35098 ft 434 kts 201°
2026-05-05 15:34 49.75352 3.28185 35409 ft 434 kts 201°
2026-05-05 15:34 49.72581 3.26359 35699 ft 434 kts 201°
2026-05-05 15:34 49.69794 3.24524 36012 ft 434 kts 201°
2026-05-05 15:34 49.67026 3.22705 36248 ft 435 kts 201°
2026-05-05 15:35 49.64228 3.20868 36481 ft 436 kts 201°
2026-05-05 15:35 49.61475 3.19062 36754 ft 436 kts 201°
2026-05-05 15:35 49.58675 3.17229 36846 ft 437 kts 201°
2026-05-05 15:36 49.53082 3.13573 36827 ft 434 kts 201°
2026-05-05 15:36 49.47582 3.09648 36781 ft 436 kts 212°
2026-05-05 15:37 49.42559 3.04492 36764 ft 440 kts 212°
2026-05-05 15:37 49.37434 2.99301 36829 ft 441 kts 212°
2026-05-05 15:38 49.32322 2.94126 36831 ft 440 kts 212°
2026-05-05 15:38 49.27242 2.88995 36808 ft 440 kts 212°
2026-05-05 15:39 49.22119 2.83832 36812 ft 442 kts 212°
2026-05-05 15:39 49.17010 2.78698 36826 ft 442 kts 212°
2026-05-05 15:40 49.11857 2.73532 36826 ft 442 kts 212°
2026-05-05 15:40 49.06709 2.68384 36825 ft 442 kts 212°
2026-05-05 15:41 49.01603 2.63291 36843 ft 443 kts 212°
2026-05-05 15:41 48.96424 2.58137 36848 ft 443 kts 212°
2026-05-05 15:42 48.91248 2.53000 36821 ft 443 kts 212°
2026-05-05 15:42 48.86093 2.47896 36824 ft 443 kts 211°
2026-05-05 15:43 48.80930 2.42798 36827 ft 443 kts 211°
2026-05-05 15:43 48.75780 2.37724 36837 ft 444 kts 211°
2026-05-05 15:44 48.70598 2.32633 36827 ft 443 kts 211°
2026-05-05 15:44 48.65427 2.27564 36827 ft 443 kts 211°
2026-05-05 15:45 48.60250 2.22500 36824 ft 444 kts 211°
2026-05-05 15:45 48.54714 2.18653 36781 ft 436 kts 190°
2026-05-05 15:46 48.49774 2.16977 36725 ft 441 kts 192°
2026-05-05 15:46 48.42807 2.14657 36814 ft 442 kts 191°
2026-05-05 15:47 48.37765 2.13028 36802 ft 442 kts 191°
2026-05-05 15:47 48.31770 2.11102 36794 ft 443 kts 191°
2026-05-05 15:47 48.27729 2.10347 36714 ft 440 kts 175°
2026-05-05 15:48 48.25682 2.10721 36820 ft 435 kts 171°
2026-05-05 15:48 48.19655 2.11880 36727 ft 439 kts 172°
2026-05-05 15:49 48.13565 2.13094 36809 ft 442 kts 174°
2026-05-05 15:49 48.07473 2.14078 36816 ft 440 kts 174°
2026-05-05 15:50 48.01412 2.15083 36819 ft 440 kts 174°
2026-05-05 15:50 47.95321 2.16093 36823 ft 439 kts 174°
2026-05-05 15:51 47.89258 2.17098 36826 ft 439 kts 174°
2026-05-05 15:51 47.83163 2.18104 36829 ft 439 kts 174°
2026-05-05 15:52 47.77116 2.19101 36784 ft 439 kts 174°
2026-05-05 15:52 47.71025 2.20102 36800 ft 440 kts 174°
2026-05-05 15:53 47.64980 2.21094 36796 ft 439 kts 174°
2026-05-05 15:53 47.58914 2.22087 36781 ft 439 kts 174°
2026-05-05 15:54 47.52833 2.23079 36797 ft 440 kts 174°
2026-05-05 15:54 47.46731 2.24074 36797 ft 440 kts 174°
2026-05-05 15:55 47.40667 2.25059 36802 ft 440 kts 174°
2026-05-05 15:55 47.34588 2.26044 36818 ft 440 kts 175°
2026-05-05 15:56 47.28532 2.27024 36812 ft 440 kts 175°
2026-05-05 15:56 47.22438 2.28008 36826 ft 440 kts 175°
2026-05-05 15:57 47.16325 2.28992 36841 ft 440 kts 175°
2026-05-05 15:57 47.10278 2.29964 36838 ft 439 kts 175°
2026-05-05 15:58 47.04189 2.30940 36832 ft 439 kts 175°
2026-05-05 15:58 46.98143 2.31906 36834 ft 439 kts 175°
2026-05-05 15:59 46.92059 2.32877 36843 ft 439 kts 175°
2026-05-05 15:59 46.85993 2.33843 36844 ft 438 kts 175°
2026-05-05 16:00 46.79950 2.34802 36841 ft 438 kts 175°
2026-05-05 16:00 46.73871 2.35766 36841 ft 438 kts 175°
2026-05-05 16:01 46.67835 2.36720 36850 ft 438 kts 175°
2026-05-05 16:01 46.61773 2.37676 36858 ft 438 kts 175°
2026-05-05 16:02 46.55712 2.38631 36859 ft 438 kts 175°
2026-05-05 16:02 46.49677 2.39578 36859 ft 438 kts 175°
2026-05-05 16:03 46.43620 2.40527 36867 ft 438 kts 175°
2026-05-05 16:03 46.37564 2.41474 36862 ft 437 kts 175°
2026-05-05 16:04 46.31546 2.42413 36866 ft 437 kts 175°
2026-05-05 16:04 46.25497 2.43354 36871 ft 437 kts 175°
2026-05-05 16:05 46.19445 2.44294 36874 ft 437 kts 175°
2026-05-05 16:05 46.13411 2.45229 36866 ft 437 kts 176°
2026-05-05 16:06 46.07396 2.46159 36881 ft 436 kts 176°
2026-05-05 16:06 46.01352 2.47092 36880 ft 436 kts 176°
2026-05-05 16:07 45.95344 2.48017 36878 ft 436 kts 176°
2026-05-05 16:07 45.89296 2.48945 36886 ft 436 kts 176°
2026-05-05 16:08 45.83255 2.49871 36876 ft 436 kts 176°
2026-05-05 16:08 45.77212 2.50796 36895 ft 436 kts 176°
2026-05-05 16:09 45.71194 2.51714 36886 ft 437 kts 176°
2026-05-05 16:09 45.65122 2.52638 36895 ft 438 kts 176°
2026-05-05 16:10 45.59107 2.53552 36901 ft 438 kts 176°
2026-05-05 16:10 45.53040 2.54472 36898 ft 437 kts 176°
2026-05-05 16:11 45.47036 2.55381 36904 ft 436 kts 176°
2026-05-05 16:12 45.34977 2.57199 36907 ft 436 kts 176°
2026-05-05 16:13 45.19872 2.59466 36921 ft 436 kts 176°
2026-05-05 16:13 45.13846 2.60367 36900 ft 435 kts 177°
2026-05-05 16:14 45.01838 2.62157 36911 ft 435 kts 177°
2026-05-05 16:15 44.89838 2.63938 36927 ft 434 kts 177°
2026-05-05 16:16 44.77820 2.65714 36928 ft 434 kts 177°
2026-05-05 16:17 44.68826 2.67038 36934 ft 435 kts 177°
2026-05-05 16:18 44.59817 2.68361 36924 ft 433 kts 178°
2026-05-05 16:19 44.50853 2.69673 36931 ft 433 kts 178°
2026-05-05 16:19 44.41848 2.70986 36941 ft 432 kts 178°
2026-05-05 16:20 44.29967 2.72713 36934 ft 430 kts 178°
2026-05-05 16:22 44.15110 2.74863 36932 ft 428 kts 179°
2026-05-05 16:23 44.03258 2.76570 36932 ft 427 kts 179°
2026-05-05 16:23 43.94378 2.77845 36938 ft 426 kts 179°
2026-05-05 16:24 43.88524 2.78683 36917 ft 425 kts 179°
2026-05-05 16:25 43.79681 2.79946 36933 ft 426 kts 179°
2026-05-05 16:25 43.70873 2.81200 36925 ft 422 kts 180°
2026-05-05 16:26 43.59222 2.82854 36890 ft 423 kts 180°
2026-05-05 16:27 43.53396 2.83678 36937 ft 420 kts 180°
2026-05-05 16:27 43.47581 2.84499 36917 ft 419 kts 180°
2026-05-05 16:28 43.41803 2.85313 36919 ft 420 kts 180°
2026-05-05 16:28 43.35997 2.86131 36896 ft 419 kts 181°
2026-05-05 16:29 43.30180 2.86947 36884 ft 419 kts 181°
2026-05-05 16:29 43.24371 2.87761 36902 ft 419 kts 181°
2026-05-05 16:30 43.18602 2.88568 36895 ft 419 kts 181°
2026-05-05 16:30 43.12815 2.89375 36914 ft 418 kts 181°
2026-05-05 16:31 43.07010 2.90184 36923 ft 418 kts 181°
2026-05-05 16:31 43.01213 2.90991 36890 ft 417 kts 181°
2026-05-05 16:32 42.95459 2.91790 36897 ft 419 kts 181°
2026-05-05 16:32 42.89675 2.92591 36915 ft 419 kts 181°
2026-05-05 16:33 42.83904 2.93389 36949 ft 419 kts 181°
2026-05-05 16:33 42.78084 2.94193 36941 ft 418 kts 181°
2026-05-05 16:34 42.72318 2.94987 36936 ft 419 kts 181°
2026-05-05 16:34 42.66509 2.95786 36939 ft 419 kts 181°
2026-05-05 16:35 42.60736 2.96578 36933 ft 419 kts 181°
2026-05-05 16:35 42.54921 2.97375 36898 ft 418 kts 181°
2026-05-05 16:36 42.49150 2.98163 36911 ft 417 kts 181°
2026-05-05 16:36 42.43406 2.98458 36925 ft 415 kts 185°
2026-05-05 16:37 42.38578 2.98703 36896 ft 415 kts 184°
2026-05-05 16:37 42.32886 2.99007 36905 ft 415 kts 184°
2026-05-05 16:38 42.27089 2.99318 36879 ft 415 kts 184°
2026-05-05 16:38 42.21305 2.99629 36888 ft 416 kts 184°
2026-05-05 16:39 42.15571 2.99936 36862 ft 416 kts 185°
2026-05-05 16:39 42.09822 3.00243 36887 ft 415 kts 185°
2026-05-05 16:40 42.04043 3.00552 36877 ft 415 kts 185°
2026-05-05 16:40 41.98296 3.00858 36882 ft 416 kts 185°
2026-05-05 16:41 41.92507 3.01166 36861 ft 415 kts 185°
2026-05-05 16:41 41.86753 3.01471 36886 ft 413 kts 185°
2026-05-05 16:42 41.81033 3.01773 36888 ft 413 kts 185°
2026-05-05 16:42 41.75272 3.02079 36872 ft 414 kts 185°
2026-05-05 16:43 41.69516 3.02383 36877 ft 414 kts 185°
2026-05-05 16:43 41.63800 3.02684 36880 ft 414 kts 185°
2026-05-05 16:44 41.58040 3.02987 36878 ft 414 kts 185°
2026-05-05 16:44 41.52279 3.03289 36877 ft 414 kts 185°
2026-05-05 16:45 41.46561 3.03589 36878 ft 413 kts 185°
2026-05-05 16:45 41.40816 3.03890 36879 ft 412 kts 185°
2026-05-05 16:46 41.35072 3.04190 36881 ft 412 kts 185°
2026-05-05 16:46 41.29369 3.04487 36846 ft 412 kts 186°
2026-05-05 16:47 41.23640 3.04785 36876 ft 412 kts 186°
2026-05-05 16:47 41.17910 3.05083 36880 ft 411 kts 186°
2026-05-05 16:48 41.12214 3.05379 36871 ft 411 kts 186°
2026-05-05 16:48 41.06514 3.05674 36854 ft 409 kts 186°
2026-05-05 16:49 41.00856 3.05966 36880 ft 409 kts 186°
2026-05-05 16:49 40.95161 3.06260 36882 ft 409 kts 186°
2026-05-05 16:50 40.89475 3.06553 36878 ft 409 kts 186°
2026-05-05 16:50 40.83812 3.06844 36868 ft 408 kts 186°
2026-05-05 16:51 40.78125 3.07136 36877 ft 408 kts 186°
2026-05-05 16:51 40.72457 3.07427 36877 ft 408 kts 186°
2026-05-05 16:52 40.66821 3.07715 36879 ft 408 kts 186°
2026-05-05 16:52 40.61141 3.08005 36877 ft 408 kts 186°
2026-05-05 16:53 40.55484 3.08293 36877 ft 408 kts 186°
2026-05-05 16:53 40.49789 3.08583 36876 ft 408 kts 186°
2026-05-05 16:54 40.44162 3.08869 36703 ft 403 kts 186°
2026-05-05 16:54 40.41371 3.09011 36409 ft 398 kts 186°
2026-05-05 16:54 40.38623 3.09150 36175 ft 394 kts 186°
2026-05-05 16:55 40.35893 3.09289 35944 ft 392 kts 186°
2026-05-05 16:55 40.33178 3.09426 35714 ft 389 kts 186°
2026-05-05 16:55 40.30473 3.09563 35486 ft 387 kts 186°
2026-05-05 16:55 40.27786 3.09699 35260 ft 384 kts 186°
2026-05-05 16:56 40.25125 3.09833 35039 ft 382 kts 186°
2026-05-05 16:56 40.22499 3.09965 34820 ft 380 kts 186°
2026-05-05 16:56 40.19865 3.10099 34556 ft 378 kts 186°
2026-05-05 16:56 40.17239 3.10231 34339 ft 376 kts 186°
2026-05-05 16:57 40.14638 3.10362 34126 ft 375 kts 186°
2026-05-05 16:57 40.12033 3.10493 33911 ft 373 kts 186°
2026-05-05 16:57 40.09444 3.10623 33670 ft 371 kts 186°
2026-05-05 16:57 40.06863 3.10753 33422 ft 369 kts 186°
2026-05-05 16:58 40.04327 3.10880 33181 ft 368 kts 186°
2026-05-05 16:58 40.01765 3.11009 32943 ft 367 kts 186°
2026-05-05 16:58 39.99242 3.11135 32695 ft 363 kts 187°
2026-05-05 16:58 39.96715 3.11262 32056 ft 364 kts 186°
2026-05-05 16:59 39.94201 3.11298 31529 ft 356 kts 194°
2026-05-05 16:59 39.91920 3.10466 31119 ft 338 kts 211°
2026-05-05 16:59 39.89815 3.09079 30586 ft 337 kts 212°
2026-05-05 16:59 39.87762 3.07695 30165 ft 334 kts 213°
2026-05-05 17:00 39.85721 3.06269 29671 ft 332 kts 213°
2026-05-05 17:00 39.83699 3.04834 29218 ft 329 kts 214°
2026-05-05 17:00 39.81707 3.03404 28796 ft 325 kts 214°
2026-05-05 17:00 39.79730 3.01976 28328 ft 323 kts 214°
2026-05-05 17:01 39.77793 3.00573 27886 ft 321 kts 214°
2026-05-05 17:01 39.75834 2.99152 27355 ft 321 kts 214°
2026-05-05 17:01 39.73879 2.97734 26837 ft 321 kts 214°
2026-05-05 17:01 39.71949 2.96335 26427 ft 319 kts 214°
2026-05-05 17:02 39.70014 2.94933 26015 ft 317 kts 214°
2026-05-05 17:02 39.68093 2.93543 25576 ft 317 kts 214°
2026-05-05 17:02 39.66172 2.92153 25175 ft 315 kts 214°
2026-05-05 17:02 39.64255 2.90767 24776 ft 314 kts 214°
2026-05-05 17:03 39.62376 2.89409 24419 ft 312 kts 214°
2026-05-05 17:03 39.60479 2.88039 24033 ft 311 kts 214°
2026-05-05 17:03 39.58580 2.86669 23664 ft 310 kts 215°
2026-05-05 17:03 39.56733 2.85250 23243 ft 305 kts 223°
2026-05-05 17:04 39.55324 2.83260 22873 ft 296 kts 238°
2026-05-05 17:04 39.54221 2.81019 22387 ft 296 kts 239°
2026-05-05 17:04 39.53135 2.78784 21954 ft 296 kts 239°
2026-05-05 17:04 39.52045 2.76521 21545 ft 295 kts 239°
2026-05-05 17:05 39.50968 2.74273 21166 ft 293 kts 239°
2026-05-05 17:05 39.49899 2.72037 20768 ft 292 kts 239°
2026-05-05 17:05 39.48835 2.69807 20368 ft 290 kts 239°
2026-05-05 17:05 39.47771 2.67580 19992 ft 289 kts 239°
2026-05-05 17:06 39.46717 2.65373 19661 ft 287 kts 239°
2026-05-05 17:06 39.45673 2.63187 19302 ft 285 kts 239°
2026-05-05 17:06 39.44643 2.61032 18996 ft 283 kts 239°
2026-05-05 17:06 39.43608 2.58870 18930 ft 283 kts 239°
2026-05-05 17:07 39.42566 2.56694 18922 ft 284 kts 239°
2026-05-05 17:07 39.41520 2.54512 18912 ft 285 kts 239°
2026-05-05 17:07 39.40474 2.52331 18909 ft 285 kts 239°
2026-05-05 17:07 39.39429 2.50152 18906 ft 285 kts 239°
2026-05-05 17:08 39.38385 2.47978 18903 ft 285 kts 239°
2026-05-05 17:08 39.37339 2.45803 18900 ft 285 kts 239°
2026-05-05 17:08 39.36309 2.43661 18897 ft 285 kts 239°
2026-05-05 17:08 39.35266 2.41492 18898 ft 284 kts 239°
2026-05-05 17:09 39.34220 2.39319 18895 ft 284 kts 239°
2026-05-05 17:09 39.33172 2.37145 18895 ft 284 kts 239°
2026-05-05 17:09 39.32122 2.34967 18872 ft 286 kts 239°
2026-05-05 17:09 39.31069 2.32784 18889 ft 287 kts 239°
2026-05-05 17:10 39.30015 2.30602 18769 ft 283 kts 239°
2026-05-05 17:10 39.28986 2.28471 18114 ft 283 kts 239°
2026-05-05 17:10 39.27945 2.26321 17506 ft 280 kts 239°
2026-05-05 17:10 39.26925 2.24212 16819 ft 278 kts 239°
2026-05-05 17:11 39.25903 2.22102 16205 ft 276 kts 239°
2026-05-05 17:11 39.24888 2.20008 15592 ft 274 kts 238°
2026-05-05 17:11 39.23878 2.17923 14969 ft 273 kts 238°
2026-05-05 17:11 39.22876 2.15858 14376 ft 271 kts 238°
2026-05-05 17:12 39.21879 2.13805 13791 ft 269 kts 238°
2026-05-05 17:12 39.20900 2.11787 13172 ft 268 kts 238°
2026-05-05 17:12 39.19911 2.09750 12523 ft 267 kts 238°
2026-05-05 17:12 39.18927 2.07728 11901 ft 266 kts 238°
2026-05-05 17:13 39.17943 2.05706 11283 ft 266 kts 238°
2026-05-05 17:13 39.16959 2.03685 10685 ft 265 kts 238°
2026-05-05 17:13 39.15979 2.01674 10103 ft 265 kts 238°
2026-05-05 17:13 39.14998 1.99660 9498 ft 264 kts 238°
2026-05-05 17:14 39.14031 1.97679 8897 ft 263 kts 238°
2026-05-05 17:14 39.13054 1.95678 8303 ft 262 kts 239°
2026-05-05 17:14 39.12084 1.93693 7727 ft 261 kts 239°
2026-05-05 17:14 39.11120 1.91720 7178 ft 259 kts 239°
2026-05-05 17:15 39.10166 1.89770 6616 ft 259 kts 239°
2026-05-05 17:15 39.09213 1.87821 6233 ft 252 kts 239°
2026-05-05 17:15 39.08307 1.85974 5933 ft 242 kts 239°
2026-05-05 17:15 39.07431 1.84186 5650 ft 231 kts 239°
2026-05-05 17:16 39.06547 1.82508 5389 ft 222 kts 234°
2026-05-05 17:16 39.05650 1.80942 5263 ft 212 kts 237°
2026-05-05 17:16 39.04844 1.79379 4962 ft 212 kts 239°
2026-05-05 17:16 39.04079 1.77759 4695 ft 211 kts 240°
2026-05-05 17:17 39.03349 1.76125 4424 ft 209 kts 241°
2026-05-05 17:17 39.02640 1.74479 4088 ft 211 kts 242°
2026-05-05 17:17 39.01937 1.72811 3797 ft 212 kts 242°
2026-05-05 17:17 39.01239 1.71141 3523 ft 211 kts 242°
2026-05-05 17:18 39.00557 1.69497 3232 ft 212 kts 242°
2026-05-05 17:18 38.99867 1.67829 3016 ft 210 kts 242°
2026-05-05 17:18 38.99179 1.66163 2959 ft 211 kts 242°
2026-05-05 17:18 38.98488 1.64488 2976 ft 213 kts 242°
2026-05-05 17:19 38.97803 1.62823 2994 ft 211 kts 242°
2026-05-05 17:19 38.97130 1.61191 2974 ft 204 kts 242°
2026-05-05 17:19 38.96468 1.59585 2992 ft 202 kts 243°
2026-05-05 17:19 38.95808 1.57984 2999 ft 202 kts 242°
2026-05-05 17:20 38.95153 1.56393 2989 ft 202 kts 242°
2026-05-05 17:20 38.94500 1.54809 2991 ft 203 kts 242°
2026-05-05 17:20 38.93838 1.53202 2996 ft 203 kts 242°
2026-05-05 17:20 38.93191 1.51630 2993 ft 199 kts 241°
2026-05-05 17:21 38.92541 1.50060 2958 ft 199 kts 241°
2026-05-05 17:21 38.91900 1.48438 2513 ft 208 kts 243°
2026-05-05 17:21 38.91290 1.46778 2060 ft 201 kts 243°
2026-05-05 17:22 38.90255 1.44238 1314 ft 181 kts 238°
2026-05-05 17:22 38.89628 1.42875 847 ft 172 kts 238°
2026-05-05 17:22 38.88900 1.41221 453 ft 146 kts 241°
2026-05-05 17:22 38.88592 1.40467 303 ft 144 kts 240°
2026-05-05 17:23 38.88113 1.39316 144 ft 145 kts 240°
2026-05-05 17:23 38.87665 1.38237 19 ft 130 kts 241°
2026-05-05 17:23 38.87358 1.37495 12 ft 60 kts 242°
2026-05-05 17:23 38.87258 1.37108 13 ft 37 kts 269°
2026-05-05 17:24 38.87261 1.36967 11 ft 0 kts 274°
2026-05-05 17:24 38.87262 1.36947 11 ft 4 kts 274°
2026-05-05 17:24 38.87274 1.36893 13 ft 1 kts 310°
2026-05-05 17:24 38.87298 1.36867 11 ft 8 kts 323°
2026-05-05 17:25 38.87382 1.36811 11 ft 18 kts 334°
2026-05-05 17:25 38.87423 1.36796 11 ft 8 kts 357°
2026-05-05 17:25 38.87450 1.36830 11 ft 11 kts 59°
2026-05-05 17:25 38.87483 1.36908 11 ft 10 kts 65°
2026-05-05 17:26 38.87519 1.36998 11 ft 12 kts 62°
2026-05-05 17:26 38.87555 1.37084 12 ft 3 kts 48°
2026-05-05 17:26 38.87562 1.37087 11 ft 1 kts 13°
2026-05-05 17:26 38.87583 1.37082 11 ft 6 kts 343°
2026-05-05 17:27 38.87606 1.37069 12 ft 2 kts 331°
2026-05-05 17:27 38.87619 1.37060 11 ft 0 kts 332°
2026-05-05 17:27 38.87620 1.37060 11 ft 0 kts 332°